Terminal Aerodrome Forecast
Issued by NWS Binghamton, NY

Home | Current Version | Previous Version | Text Only | Print | Product List | Glossary On
Versions: 1 2 3 4 5 6 7 8 9 10 11 12 13 14 15 16 17
000
FTUS41 KBGM 251100
TAFAVP
TAF
KAVP 251126Z 2512/2612 22008KT P6SM BKN050
     FM251600 24012G22KT P6SM SCT050 BKN120
     FM260000 29008KT P6SM BKN040=

USA.gov is the U.S. government's official web portal to all federal, state and local government web resources and services.